User: anonymous   Login
Location: Unspecified
(0.0000°N, 0.0000°E)
Time: 05:55:13
(UTC+00:00)
Language:

LATINSAT B - Orbit

View from above orbital plane
View from above orbital plane
View from above satellite
View from above satellite

Ground track
Ground track

The orbit data is extracted from the following two-line orbital elements,

1 27606U 02058B   17228.85979397 -.00000049  00000-0  13940-4 0  9998
2 27606  64.5578   0.1145 0040178  79.7824 280.7804 14.72075491786815
Epoch (UTC): 16 August 2017 20:38:06
Eccentricity: 0.0040178
inclination: 64.5578°
perigee height: 626 km
apogee height: 683 km
right ascension of ascending node: 0.1145°
argument of perigee: 79.7824°
revolutions per day: 14.72075491
mean anomaly at epoch: 280.7804°
orbit number at epoch: 78681

The dashed part of the orbit path shows where the satellite is in the earth's shadow,  

DLR